Location: Cactus School
(34.5700°N, 118.0931°W)
Time: 12:19:57
(UTC-08:00)

A-11 Canister half - Pass Details

Date: 23 November 2019
Orbit: 1515 x 1685 km, 47.2° (Epoch: 05 December)

Event Time Altitude Azimuth Distance (km) Brightness Sun altitude
Rises 18:25:03 0° 274° (W) 4,887 13.0 -20.7°
Reaches altitude 10° 18:28:28 10° 282° (WNW) 3,917 12.1 -21.3°
Maximum altitude 18:37:54 42° 351° (N) 2,260 9.8 -23.3°
Enters shadow 18:42:54 27° 41° (NE) 2,838 10.0 -24.3°
